Wind_Speed
4 6 6 5 6 5 3 2 6 6 4 9 7 19 23 17 13 11 8 6 5 5 2 3 3 3 5 6 8 9 11 13 14 15 17 17 17 19 17 18 19 19 16 16
3 5 3 2 3 3 2 4 5 7 3 8 13 25 21 9 4 3 3 4 4 5 5 5 3 4 6 8 7 8 9 12 12 13 14 13 18 17 20 19 20 16 16 15
4 5 3 0 2 3 2 3 4 5 12 4 14 9 3 3 3 4 7 6 6 6 6 5 6 7 8 8 6 6 8 11 11 11 12 12 14 15 14 19 17 19 18 14
6 2 1 2 2 3 3 1 3 9 9 5 6 5 4 4 5 5 5 5 5 4 6 7 9 9 8 7 6 6 6 8 9 10 10 11 13 15 17 16 18 19 14 15
2 3 2 0 1 1 3 2 4 4 3 5 2 3 4 0 7 7 5 2 1 2 3 5 7 9 9 9 8 8 7 7 8 9 8 10 11 12 14 15 16 16 15 17
3 1 1 1 1 1 1 3 1 1 2 2 2 2 5 2 2 3 3 2 1 4 5 7 8 9 11 10 9 8 7 8 8 8 8 9 10 12 13 14 13 14 14 16
2 3 2 2 2 2 2 2 2 2 1 2 2 3 8 6 3 0 1 2 4 5 6 6 7 9 11 11 10 9 8 9 8 8 8 8 8 9 11 11 11 11 11 16
1 1 1 2 2 1 2 1 2 4 3 4 3 6 3 1 2 5 6 6 7 7 5 6 8 10 11 11 10 10 10 11 9 8 8 8 8 7 8 8 9 8 7 9
1 1 1 1 1 2 2 2 2 1 1 4 2 6 10 4 4 5 4 5 5 6 7 9 11 11 12 12 12 13 12 12 11 10 9 9 8 7 8 8 6 5 5 5
2 2 1 2 2 3 3 5 2 1 3 4 3 5 4 6 7 4 3 5 8 9 12 13 15 17 18 15 12 13 14 14 13 12 11 10 9 8 8 8 8 7 5 3
3 2 2 2 6 5 4 3 2 2 2 3 4 4 4 4 2 3 4 7 13 15 15 14 15 16 14 13 13 15 16 16 16 14 13 12 10 9 8 7 6 6 7 6
1 2 4 1 2 2 2 3 5 3 3 2 3 7 2 2 0 1 11 14 15 15 15 14 16 15 13 12 12 14 16 18 17 15 14 13 12 11 10 9 8 6 5 4
4 2 3 2 3 2 5 6 5 1 1 8 4 3 1 2 2 9 14 16 15 15 15 14 13 13 14 13 13 13 16 19 17 16 16 15 15 14 13 11 9 8 6 5
4 2 6 4 3 2 4 7 11 10 5 6 13 17 14 13 15 19 16 15 14 12 13 14 14 17 19 17 15 14 15 17 18 18 18 18 18 16 15 13 11 9 8 7
2 4 3 11 14 13 15 17 15 17 17 10 8 14 17 19 20 16 12 14 16 15 14 15 15 15 22 22 19 14 14 14 17 20 21 22 18 16 15 14 12 10 9 8
2 3 2 7 10 7 13 16 18 20 22 21 26 29 20 11 5 10 13 16 15 13 13 14 15 19 22 23 19 16 14 13 15 21 23 19 18 17 16 14 12 11 11 10
3 2 2 5 3 12 12 8 10 8 7 18 14 10 10 11 11 14 16 16 14 13 15 17 17 22 25 26 20 16 14 13 13 20 22 21 20 19 17 15 14 15 13 11
5 4 2 6 10 4 3 2 4 9 6 15 12 13 13 12 13 14 16 14 13 18 22 21 23 28 29 28 24 22 17 15 16 18 22 24 22 21 19 19 18 16 14 13
6 7 3 4 3 11 2 2 4 3 4 3 4 8 11 12 15 13 7 14 20 24 25 27 30 31 30 28 26 22 21 20 17 20 22 24 24 26 23 22 20 19 17 15
6 7 7 2 3 5 2 3 4 2 6 3 4 8 11 12 13 12 20 22 23 31 29 29 33 33 31 29 27 24 22 22 22 24 22 22 26 27 26 25 24 21 20 18
5 5 13 10 5 9 6 3 2 3 3 8 6 11 13 12 12 22 22 21 26 28 32 33 30 28 30 31 27 24 26 24 26 25 25 21 23 28 30 27 24 22 20 16
7 8 6 6 6 10 2 3 3 3 9 10 10 12 16 18 19 20 21 21 21 24 27 29 27 27 29 28 26 25 26 28 24 20 21 20 22 23 25 26 23 22 20 19
5 6 4 10 7 1 2 5 8 9 10 11 14 17 19 19 20 19 18 20 20 25 25 25 24 25 27 26 24 25 27 27 24 21 21 20 19 20 22 25 25 23 22 21
6 8 5 3 9 14 11 11 12 7 13 13 14 17 15 18 19 18 17 17 16 25 25 26 26 24 24 25 26 26 26 25 23 22 22 17 17 18 19 21 23 23 23 22
6 5 6 15 18 18 17 9 14 17 14 17 17 13 16 14 15 14 14 15 20 23 25 25 24 23 26 27 27 26 23 20 19 18 17 16 15 17 18 22 23 26 26 27
10 17 15 17 19 17 19 18 15 16 17 15 14 15 13 10 12 12 12 17 19 23 25 23 24 24 26 27 27 25 22 18 17 16 15 14 14 13 17 18 18 22 22 23
Wind_Direction
33 65 74 79 50 71 86 330 302 303 349 315 288 286 289 295 279 269 256 238 231 235 232 216 254 255 278 295 305 316 332 336 342 342 339 334 336 333 329 325 321 317 308 300
108 86 105 94 67 68 39 323 326 291 302 317 307 294 293 276 236 239 245 224 231 223 224 223 258 248 257 273 294 317 329 337 342 341 329 322 323 318 315 320 322 327 322 306
82 99 133 134 75 1 23 336 347 313 317 265 304 269 235 160 233 242 248 259 261 258 267 253 253 255 256 269 288 304 322 337 337 331 324 320 319 320 324 333 331 327 329 319
72 107 110 80 57 340 307 50 312 308 332 313 1 296 266 198 225 234 234 232 259 276 274 267 263 264 260 269 274 292 309 319 324 321 318 318 320 322 328 326 320 326 339 344
106 142 129 144 52 283 4 325 306 304 294 306 139 280 277 324 236 214 203 173 231 259 283 296 269 265 265 262 265 268 280 295 314 311 307 316 315 317 323 331 329 332 340 350
91 98 250 69 126 266 343 251 274 166 299 253 54 320 281 231 262 172 148 155 265 327 301 275 276 272 266 262 260 263 274 288 302 308 307 305 311 318 322 331 340 345 343 352
164 168 150 228 216 166 329 343 307 285 267 305 164 264 263 277 249 250 143 15 356 316 295 294 288 278 274 263 256 254 260 273 281 294 288 293 307 312 314 326 330 341 350 356
1 209 169 129 345 347 39 326 305 287 307 316 158 236 253 175 297 276 277 299 301 300 296 294 294 291 288 277 259 248 251 261 263 273 278 283 292 298 308 320 326 333 345 360
346 218 99 65 67 317 120 246 7 299 217 274 253 267 273 288 254 240 257 303 322 326 310 298 293 285 287 283 263 245 240 249 254 257 264 267 273 281 288 308 315 322 334 336
148 267 176 111 161 84 266 137 222 175 318 297 269 283 265 360 10 39 53 356 326 315 308 300 295 293 292 284 268 246 238 241 246 247 252 257 262 274 285 302 310 315 313 318
163 249 132 212 203 187 162 201 191 306 274 289 310 285 193 212 327 5 22 335 322 321 317 313 307 303 294 278 262 247 234 234 237 239 241 246 250 253 260 264 276 292 307 314
147 268 246 235 102 337 278 241 220 242 181 239 316 272 137 251 270 4 333 332 330 330 326 315 311 310 302 288 272 255 243 237 238 238 239 242 242 241 245 250 253 260 264 281
170 221 291 187 165 198 238 199 210 149 343 219 228 254 103 131 153 329 335 334 334 336 340 343 335 322 313 305 291 275 256 246 240 232 233 237 240 239 240 241 241 245 248 243
175 251 257 275 15 57 222 207 212 212 216 259 236 273 268 296 332 324 331 331 331 330 341 344 341 337 328 304 292 284 270 251 241 234 233 234 235 237 239 242 242 239 235 242
237 259 247 266 275 264 260 258 235 220 227 243 275 284 286 305 316 320 327 323 329 331 338 341 338 335 330 321 295 287 280 263 243 234 233 236 238 235 237 240 242 242 239 237
199 262 301 281 274 272 267 262 248 246 249 254 264 278 295 292 314 325 331 324 321 319 317 322 322 324 321 321 305 294 290 279 254 239 237 239 239 236 235 237 238 242 245 238
204 244 326 274 279 299 274 255 214 206 221 231 249 263 302 315 326 327 319 309 310 310 307 306 307 311 309 306 299 272 288 287 257 248 244 232 228 227 229 230 231 235 238 241
181 188 235 288 314 261 57 199 246 209 241 219 255 278 292 294 302 314 297 299 295 307 309 307 310 309 308 307 302 284 275 271 259 245 240 233 228 225 221 221 223 227 231 235
232 215 258 274 278 301 181 150 148 198 63 63 231 309 320 322 311 292 290 310 304 304 305 303 303 304 306 306 307 290 288 281 259 252 240 234 225 221 216 217 217 218 219 224
178 237 224 186 249 264 97 165 161 205 204 73 345 331 326 322 315 317 327 316 310 309 307 306 306 305 304 306 311 299 294 292 273 261 252 243 227 220 218 218 214 214 213 217
152 196 219 226 263 282 280 237 184 250 56 340 321 327 322 311 299 307 310 309 308 308 310 311 309 305 302 307 310 298 297 294 282 275 267 246 233 227 221 214 213 212 210 211
185 169 192 198 229 263 209 143 272 8 322 316 317 318 314 307 305 305 310 310 316 318 318 316 311 308 307 309 309 297 295 300 298 280 266 255 242 228 217 211 208 209 208 209
231 223 197 206 222 327 196 277 296 294 286 304 314 317 315 312 311 313 311 314 317 320 319 318 316 312 310 311 309 301 295 303 305 290 276 258 243 231 223 210 206 203 204 206
231 206 231 208 236 259 274 295 287 267 300 317 310 312 307 304 308 310 312 317 319 321 322 323 321 318 314 315 313 308 311 307 301 289 279 262 245 237 226 219 211 202 200 203
258 160 250 259 279 279 280 277 297 305 311 307 309 308 304 311 309 315 313 315 318 317 319 320 317 315 312 317 313 316 314 312 302 293 281 265 247 236 231 222 214 212 215 207
238 251 255 268 278 288 293 300 309 305 305 307 309 311 313 321 314 316 313 318 318 320 322 320 317 317 315 316 314 317 318 312 300 291 284 271 253 242 232 226 225 225 224 217
Height
838 845 845 851 848 848 849 844 842 834 846 844 825 820 803 799 800 800 798 798 801 803 806 810 811 811 812 811 810 809 806 803 800 796 793 790 787 783 780 776 771 766 762 758
836 848 855 857 854 851 851 846 837 838 847 847 824 812 797 796 797 796 795 795 798 801 805 807 808 809 810 809 808 807 805 801 798 796 794 792 788 783 779 774 769 765 761 756
837 855 858 856 853 848 849 848 850 859 848 843 838 795 790 795 797 797 797 797 799 800 801 804 806 807 807 807 807 805 803 799 797 795 793 791 788 782 777 773 767 763 759 754
852 860 858 856 854 854 846 858 860 857 851 833 842 805 781 787 790 794 789 791 794 797 801 803 804 804 805 805 803 802 799 796 794 793 792 789 786 781 777 772 768 763 758 753
857 857 857 854 857 858 853 860 860 859 856 858 838 840 780 797 788 786 785 791 795 798 800 800 801 802 801 799 798 796 795 794 793 791 790 787 784 780 776 771 767 763 758 753
857 860 859 857 859 859 861 859 859 859 858 844 846 845 792 788 793 787 788 792 795 797 798 798 798 798 796 796 795 794 793 792 791 790 788 785 782 778 775 771 766 762 758 754
855 856 860 860 855 858 857 859 842 839 838 821 857 850 799 792 792 793 791 792 795 796 796 796 795 794 792 792 791 791 790 789 789 788 786 783 780 777 774 771 767 762 759 756
848 849 856 860 856 856 860 861 848 842 826 818 852 826 791 792 796 797 797 797 797 795 795 794 793 792 790 788 787 787 786 785 785 784 783 781 778 775 773 770 767 764 760 757
847 850 859 861 860 861 858 854 863 861 864 846 818 810 789 790 790 793 795 796 794 794 793 792 790 788 785 783 782 781 781 780 780 780 779 777 775 773 771 768 765 762 760 758
856 855 861 862 861 863 859 860 853 856 840 827 802 817 801 803 799 795 795 796 794 793 790 787 785 782 780 778 777 776 776 776 775 774 774 773 772 771 770 768 767 764 760 756
859 858 859 863 857 848 860 854 859 856 848 830 821 793 796 809 802 800 797 797 793 790 787 783 780 777 774 772 771 770 769 769 769 768 768 768 767 766 765 763 762 761 761 759
859 856 851 846 859 858 854 848 845 841 843 848 845 813 796 799 803 803 798 795 793 790 786 782 778 774 771 769 767 766 766 765 765 765 765 764 763 761 760 760 759 758 757 756
858 854 846 846 856 858 853 848 847 851 850 841 830 792 797 799 800 795 796 793 789 788 784 780 776 772 769 767 765 763 762 761 761 761 761 760 759 757 756 756 756 755 755 753
857 855 846 830 837 841 847 846 847 844 844 821 814 793 784 787 796 795 791 791 789 787 784 780 776 772 768 765 762 759 757 756 756 757 757 754 753 754 753 753 753 752 752 753
858 852 855 849 844 844 843 838 837 843 831 830 795 803 794 795 796 795 795 791 788 786 782 778 774 769 766 761 757 755 753 751 751 751 750 749 750 750 750 750 750 750 750 750
862 851 860 852 838 843 838 827 829 830 826 822 814 805 799 795 799 798 794 790 787 784 780 776 772 767 761 756 753 751 748 746 746 745 743 747 748 748 747 747 748 748 748 747
855 853 851 835 843 837 817 805 808 816 819 815 818 801 800 799 799 796 793 788 784 780 776 771 766 761 756 752 747 742 742 740 738 738 738 737 738 741 743 744 745 744 745 745
855 853 853 842 833 817 804 809 807 809 809 811 808 806 803 801 799 796 791 786 783 777 772 767 763 758 752 747 743 739 733 731 729 727 728 729 731 733 735 737 737 739 741 742
856 849 846 843 840 808 801 812 812 809 805 806 807 803 800 799 798 790 785 784 780 774 767 763 759 753 747 742 738 733 729 726 722 719 717 718 721 721 724 727 730 731 733 734
860 855 848 857 843 814 800 806 808 809 796 805 804 802 801 799 787 777 780 779 772 768 763 758 754 748 742 736 733 728 723 719 717 711 710 709 708 710 713 716 720 722 723 726
856 855 849 845 841 818 799 804 808 800 799 802 803 800 798 796 792 783 779 773 770 765 758 752 748 743 738 734 730 724 718 713 709 706 703 702 702 703 703 705 710 714 716 719
832 838 842 843 843 831 799 807 800 798 797 798 797 796 793 790 786 780 774 768 763 757 752 748 742 736 731 729 725 719 713 708 705 701 696 695 696 695 696 699 702 706 710 712
824 811 811 814 802 795 801 797 796 798 799 796 795 793 789 785 780 776 771 766 761 756 751 745 740 734 728 723 719 712 706 702 699 696 693 690 689 689 691 692 694 699 702 704
812 812 812 812 792 792 791 792 793 794 792 792 792 789 787 783 778 773 768 764 759 753 747 742 736 729 722 718 713 709 704 699 694 689 685 684 684 686 687 688 690 691 692 696
803 811 804 791 789 788 786 789 788 787 789 787 786 785 783 779 775 772 768 763 759 753 745 739 733 727 720 714 707 702 698 694 689 685 682 680 679 679 681 681 683 683 684 686
805 801 797 782 782 782 782 784 786 786 785 783 782 779 777 777 774 771 766 762 758 751 743 737 731 725 718 712 705 699 694 689 684 679 676 676 676 676 677 677 678 679 681 683